Airfield :
LOGIN :

Register | Disclaimer

   EN    FR    IT 

 










Legend :    VFR   Marginal VFR   IFR   Intensive IFR   Very Intensive IFR
Visi :
Ceiling :
>= 8 km
>= 3000ft
5 to 8 km
1000 to 3000 ft
1500m to 5 km
500 to 1000 ft
800 to 1500m
200 to 500 ft
< 800m
< 200 ft
Symbols :   Thunderstorms  Fog  Heavy snow  Heavy precipitations  Wind > 20 kt
SIGMETs :     Misc.  Thunderstorms  Icing  Turbulence  Mountain Waves  Volcanic Ashes






- Airport Elevation : 297 ft
- IATA code : BBU


LRBS - Bucarest - Baneasa Aurel Vlaicu

CURRENT METAR :
  • 310700Z 25012KT CAVOK 17/09 Q1011 NOSIG

EXPIRED METARs :
  • 310630Z 25012KT CAVOK 16/10 Q1011 NOSIG
  • 310600Z 27011KT 240V300 CAVOK 15/09 Q1011 NOSIG
  • 310530Z 25011KT CAVOK 14/09 Q1011 R07/CLRD// NOSIG
  • 310500Z 26009KT CAVOK 13/09 Q1011 R07/19//95 NOSIG
  • 310430Z 26009KT 230V290 CAVOK 12/09 Q1011 R07/19//95 NOSIG

TAF TAF LRBS
Valid from the 31 at 06:00 until the 01 at 06:00 UTC


310500Z 3106/0106 25012KT CAVOK
TEMPO 3109/3116 25018G28KT



MET'MAP, your aeronautical weather chart ! - Copyright ORBIFLY December 2007 - Disclaimer

ORBIFLY MET'MAP TEAM :

Programming & Development : Alexandra Zaïnal
Concept & original design : Baudouin d'Aumeries
Assistance for programming : Marc-Olivier Méhu
Technical & hardware support : Manuel Goepfert

Contact : metmap@orbifly.com




SOURCES & CREDITS :

   NOAA